Location: Rancho Del Sol Observatory
(38.7214°N, 120.6350°W)
Time: 19:26:18
(UTC-08:00)

A-11 Canister half - Pass Details

Date: 06 February 2020
Orbit: 1517 x 1683 km, 47.2° (Epoch: 18 February)

Event Time Altitude Azimuth Distance (km) Brightness Sun altitude
Rises 19:36:27 0° 228° (SW) 4,853 12.3 -25.1°
Reaches altitude 10° 19:39:37 10° 226° (SW) 3,847 11.6 -25.7°
Maximum altitude 19:49:21 74° 143° (SE) 1,636 8.9 -27.6°
Enters shadow 19:52:13 50° 75° (ENE) 1,924 9.0 -28.1°
Drops below altitude 10° 19:58:46 10° 61° (ENE) 3,729 - -29.4°
Sets 20:01:47 0° 60° (ENE) 4,698 - -30.0°
